Beach, ND

8:54 PM MDT on October 18, 2017 (GMT -0600)
Beach

Weather History for K20U - December, 2012

Change the Weather History Date:

Sunday, December 2, 2012

  Actual Average (KGDV) Record (KGDV)
Temperature  
Mean Temperature 40 °F -  
Max Temperature 53 °F 33 °F 51 °F (2012)
Min Temperature 28 °F 15 °F -5 °F (2005)
Degree Days  
Heating Degree Days 24    
Moisture  
Dew Point 30 °F    
Average Humidity 64    
Maximum Humidity 93    
Minimum Humidity 41    
Precipitation  
Precipitation 0.36 in - - ()
Sea Level Pressure  
Sea Level Pressure 29.50 in    
Wind  
Wind Speed 12 mph (South)    
Max Wind Speed 33 mph    
Max Gust Speed 41 mph    
Visibility 10 miles    
Events Rain    
Averages and records for this station are not official NWS values.
T = Trace of Precipitation, MM = Missing Value Source: NWS Daily Summary

Daily Weather History Graph

Daily Weather History Graph

Search for Another Location

Airport or City:

Trip Planner

Search our weather history database for the weather conditions in past years. The results will help you decide how hot, cold, wet, or windy it might be!

Date:

Astronomy

Dec. 02, 2012 Rise Set
Actual Time 7:22 AM MST 4:08 PM MST
Civil Twilight 6:47 AM MST 4:43 PM MST
Nautical Twilight 6:09 AM MST 5:21 PM MST
Astronomical Twilight 5:32 AM MST 5:57 PM MST
Moon 8:05 PM MST (12/2) 10:07 AM MST (12/2)
Length of Visible Light 9h 55m
Length of Day
8h 45m
Waning Gibbous, 85% of the Moon is Illuminated
Dec 2
Waning Gibbous
Dec 6
Last Quarter
Dec 13
New
Dec 19
First Quarter
Dec 28
Full

Hourly Weather History & Observations

Time (MST) Temp. Windchill Dew Point Humidity Pressure Visibility Wind Dir Wind Speed Gust Speed Precip Events Conditions
12:15 AM 41.0 °F 33.5 °F 28.4 °F 61% 29.72 in 10.0 mi SW 13.8 mph - N/A   Scattered Clouds
12:35 AM 41.0 °F 33.9 °F 28.4 °F 61% 29.72 in 10.0 mi SW 12.7 mph - N/A   Mostly Cloudy
12:55 AM 39.2 °F 32.0 °F 28.4 °F 65% 29.72 in 10.0 mi WSW 11.5 mph - N/A   Mostly Cloudy
1:15 AM 41.0 °F 33.5 °F 30.2 °F 65% 29.72 in 10.0 mi SW 13.8 mph - N/A   Partly Cloudy
1:35 AM 41.0 °F 34.7 °F 28.4 °F 61% 29.72 in 10.0 mi WSW 10.4 mph - N/A   Clear
1:55 AM 41.0 °F 35.2 °F 28.4 °F 61% 29.72 in 10.0 mi WSW 9.2 mph - N/A   Clear
2:15 AM 39.2 °F 32.0 °F 28.4 °F 65% 29.73 in 10.0 mi WSW 11.5 mph - N/A   Clear
2:35 AM 37.4 °F 30.3 °F 28.4 °F 70% 29.73 in 10.0 mi WSW 10.4 mph - N/A   Clear
2:55 AM 37.4 °F 30.8 °F 28.4 °F 70% 29.74 in 10.0 mi WSW 9.2 mph - N/A   Clear
3:15 AM 32.0 °F 26.4 °F 26.6 °F 80% 29.73 in 10.0 mi SE 5.8 mph - N/A   Clear
3:35 AM 30.2 °F 23.4 °F 24.8 °F 80% 29.72 in 10.0 mi South 6.9 mph - N/A   Clear
3:55 AM 28.4 °F 21.2 °F 24.8 °F 86% 29.71 in 10.0 mi South 6.9 mph - N/A   Clear
4:15 AM 28.4 °F 19.7 °F 24.8 °F 86% 29.70 in 10.0 mi SSW 9.2 mph - N/A   Clear
4:35 AM 28.4 °F 19.7 °F 24.8 °F 86% 29.69 in 10.0 mi SSW 9.2 mph - N/A   Clear
4:55 AM 32.0 °F 25.6 °F 26.6 °F 80% 29.68 in 10.0 mi SSW 6.9 mph - N/A   Clear
5:15 AM 28.4 °F 21.2 °F 24.8 °F 86% 29.68 in 10.0 mi East 6.9 mph - N/A   Clear
5:35 AM 32.0 °F 25.6 °F 26.6 °F 80% 29.69 in 10.0 mi SSE 6.9 mph - N/A   Clear
5:55 AM 30.2 °F 22.6 °F 26.6 °F 86% 29.68 in 10.0 mi SE 8.1 mph - N/A   Clear
6:15 AM 32.0 °F 27.5 °F 26.6 °F 80% 29.68 in 10.0 mi SE 4.6 mph - N/A   Clear
6:35 AM 32.0 °F 26.4 °F 26.6 °F 80% 29.68 in 10.0 mi SE 5.8 mph - N/A   Clear
6:55 AM 32.0 °F 26.4 °F 26.6 °F 80% 29.67 in 10.0 mi SE 5.8 mph - N/A   Clear
7:15 AM 32.0 °F 27.5 °F 26.6 °F 80% 29.67 in 10.0 mi South 4.6 mph - N/A   Clear
7:35 AM 28.4 °F 21.2 °F 26.6 °F 93% 29.65 in 10.0 mi SSE 6.9 mph - N/A   Clear
7:55 AM 32.0 °F 24.8 °F 26.6 °F 80% 29.63 in 10.0 mi SSE 8.1 mph - N/A   Clear
8:15 AM 37.4 °F 28.9 °F 28.4 °F 70% 29.60 in 10.0 mi SSE 13.8 mph - N/A Rain Light Rain
8:35 AM 37.4 °F 29.3 °F 28.4 °F 70% 29.58 in 10.0 mi SSE 12.7 mph - 0.22 in Rain Light Rain
8:55 AM 37.4 °F 28.2 °F 28.4 °F 70% 29.58 in 10.0 mi SSE 16.1 mph - 0.28 in Rain Light Rain
9:15 AM 37.4 °F 28.9 °F 28.4 °F 70% 29.57 in 10.0 mi SE 13.8 mph - N/A   Clear
9:35 AM 39.2 °F 31.2 °F 28.4 °F 65% 29.55 in 10.0 mi SE 13.8 mph - N/A   Clear
9:55 AM 41.0 °F 32.8 °F 28.4 °F 61% 29.54 in 10.0 mi SSE 16.1 mph - N/A   Clear
10:15 AM 42.8 °F 34.8 °F 28.4 °F 57% 29.53 in 10.0 mi SSE 17.3 mph - N/A   Clear
10:35 AM 44.6 °F 36.6 °F 30.2 °F 57% 29.50 in 10.0 mi SSE 19.6 mph 26.5 mph N/A Rain Light Rain
10:55 AM 46.4 °F 38.7 °F 30.2 °F 53% 29.49 in 10.0 mi South 20.7 mph 27.6 mph 0.01 in Rain Light Rain
11:15 AM 46.4 °F 39.8 °F 30.2 °F 53% 29.48 in 10.0 mi South 16.1 mph 23.0 mph 0.01 in Rain Light Rain
11:35 AM 48.2 °F - 30.2 °F 50% 29.45 in 10.0 mi South 19.6 mph - 0.03 in   Clear
11:55 AM 50.0 °F - 30.2 °F 47% 29.43 in 10.0 mi South 21.9 mph - 0.04 in   Clear
12:15 PM 50.0 °F - 30.2 °F 47% 29.42 in 10.0 mi South 17.3 mph 27.6 mph N/A   Clear
12:35 PM 50.0 °F - 30.2 °F 47% 29.41 in 10.0 mi South 17.3 mph - N/A Rain Light Rain
12:55 PM 51.8 °F - 30.2 °F 44% 29.40 in 10.0 mi South 13.8 mph 19.6 mph 0.01 in Rain Light Rain
1:15 PM 51.8 °F - 30.2 °F 44% 29.39 in 10.0 mi South 13.8 mph - N/A Rain Light Rain
1:35 PM 53.6 °F - 30.2 °F 41% 29.39 in 10.0 mi South 16.1 mph - N/A   Clear
2:15 PM 51.8 °F - 32.0 °F 47% 29.36 in 10.0 mi South 11.5 mph - N/A   Clear
2:35 PM 51.8 °F - 32.0 °F 47% 29.36 in 10.0 mi South 12.7 mph - 0.01 in Rain Light Rain
2:55 PM 50.0 °F - 32.0 °F 50% 29.35 in 10.0 mi South 11.5 mph - 0.02 in Rain Light Rain
3:15 PM 48.2 °F - 30.2 °F 50% 29.34 in 10.0 mi South 9.2 mph - N/A   Clear
3:35 PM 48.2 °F - 30.2 °F 50% 29.34 in 10.0 mi SSE 8.1 mph - N/A   Clear
3:55 PM 46.4 °F 42.9 °F 30.2 °F 53% 29.34 in 10.0 mi SSE 6.9 mph - N/A   Partly Cloudy
4:15 PM 44.6 °F 40.7 °F 30.2 °F 57% 29.34 in 10.0 mi SSE 6.9 mph - N/A   Partly Cloudy
4:35 PM 41.0 °F 35.8 °F 28.4 °F 61% 29.33 in 10.0 mi South 8.1 mph - N/A Rain Light Rain
4:55 PM 41.0 °F 35.8 °F 28.4 °F 61% 29.34 in 10.0 mi SSE 8.1 mph - N/A   Mostly Cloudy
5:15 PM 42.8 °F 38.0 °F 28.4 °F 57% 29.33 in 10.0 mi South 8.1 mph - N/A   Overcast
5:35 PM 41.0 °F 36.4 °F 28.4 °F 61% 29.32 in 10.0 mi SSE 6.9 mph - N/A   Mostly Cloudy
5:55 PM 41.0 °F 37.1 °F 30.2 °F 65% 29.33 in 10.0 mi South 5.8 mph - N/A   Overcast
6:15 PM 39.2 °F 32.5 °F 30.2 °F 70% 29.32 in 10.0 mi South 10.4 mph - N/A   Mostly Cloudy
6:35 PM 41.0 °F 35.2 °F 30.2 °F 65% 29.32 in 10.0 mi South 9.2 mph - N/A   Overcast
6:55 PM 41.0 °F 34.7 °F 30.2 °F 65% 29.31 in 10.0 mi South 10.4 mph - N/A   Overcast
7:15 PM 41.0 °F 35.8 °F 30.2 °F 65% 29.31 in 10.0 mi South 8.1 mph - N/A   Overcast
7:35 PM 41.0 °F 34.7 °F 30.2 °F 65% 29.30 in 10.0 mi South 10.4 mph - N/A   Overcast
7:55 PM 42.8 °F 36.6 °F 32.0 °F 66% 29.30 in 10.0 mi South 11.5 mph - N/A   Overcast
8:15 PM 44.6 °F 40.2 °F 32.0 °F 61% 29.30 in 10.0 mi SSE 8.1 mph - N/A   Overcast
8:35 PM 44.6 °F 39.7 °F 30.2 °F 57% 29.30 in 10.0 mi South 9.2 mph - N/A   Overcast
8:55 PM 44.6 °F 43.1 °F 32.0 °F 61% 29.31 in 10.0 mi SW 3.5 mph - N/A Rain Light Rain
9:15 PM 46.4 °F 44.3 °F 32.0 °F 57% 29.30 in 10.0 mi SSW 4.6 mph - N/A   Overcast
9:35 PM 46.4 °F 41.9 °F 32.0 °F 57% 29.32 in 10.0 mi SSW 9.2 mph - N/A   Overcast
9:55 PM 46.4 °F 41.1 °F 32.0 °F 57% 29.32 in 10.0 mi SW 11.5 mph 16.1 mph N/A   Overcast
10:15 PM 50.0 °F - 32.0 °F 50% 29.35 in 10.0 mi West 19.6 mph 28.8 mph N/A   Mostly Cloudy
10:35 PM 53.6 °F - 32.0 °F 44% 29.38 in 10.0 mi WNW 27.6 mph 41.4 mph N/A   Scattered Clouds
10:55 PM 48.2 °F - 35.6 °F 62% 29.41 in 10.0 mi WNW 33.4 mph 41.4 mph N/A   Mostly Cloudy
11:15 PM 46.4 °F 37.2 °F 37.4 °F 71% 29.44 in 10.0 mi WNW 29.9 mph 38.0 mph N/A   Overcast
11:35 PM 46.4 °F 38.5 °F 37.4 °F 71% 29.46 in 10.0 mi NW 21.9 mph 35.7 mph N/A   Overcast
11:55 PM 44.6 °F 36.4 °F 39.2 °F 81% 29.49 in 10.0 mi WNW 20.7 mph 28.8 mph N/A Rain Light Rain